Coolangatta Observation History
Time Wind Speed Temp Pressure Rel. Hum Rain
16/09:30pm SSE 7-9 kts 24.5°c 1012.1 hPa 61% 0.2mm
16/09:00pm SSE 5-9 kts 24.4°c 1012.2 hPa 65% 0.2mm
16/08:30pm SSE 8-11 kts 24.8°c 1011.6 hPa 62% 0.2mm
16/08:00pm SSE 9-12 kts 24.9°c 1011.4 hPa 63% 0.2mm
16/07:30pm S 7-10 kts 24.4°c 1011.2 hPa 66% 0.2mm
16/07:00pm SSE 8-11 kts 24.9°c 1010.4 hPa 64% 0.2mm
16/06:30pm SSE 11-16 kts 25.0°c 1009.7 hPa 65% 0.2mm
16/06:00pm SE 11-15 kts 25.2°c 1008.9 hPa 67% 0.2mm
16/05:30pm SE 13-17 kts 25.4°c 1008.7 hPa 65% 0.2mm
16/05:00pm SE 13-16 kts 25.9°c 1008.6 hPa 64% 0.2mm
16/04:30pm SE 13-17 kts 26.0°c 1008.1 hPa 64% 0.2mm
16/04:00pm SE 18-23 kts 26.4°c 1007.0 hPa 63% 0.2mm
16/03:30pm SE 16-21 kts 26.8°c 1007.2 hPa 60% 0.2mm
16/03:00pm SE 16-21 kts 26.9°c 1007.3 hPa 60% 0.2mm
16/02:30pm SE 13-21 kts 27.4°c 1007.3 hPa 62% 0.2mm
16/02:00pm SE 17-24 kts 27.9°c 1007.3 hPa 61% 0.2mm
16/01:30pm SSE 16-22 kts 29.0°c 1007.1 hPa 64% 0.2mm
16/01:00pm SE 17-21 kts 28.9°c 1007.4 hPa 62% 0.2mm
16/12:30pm SE 15-21 kts 28.4°c 1007.3 hPa 61% 0.2mm
16/12:00pm SE 16-22 kts 29.1°c 1007.1 hPa 57% 0.2mm
16/11:30am ENE 12-15 kts 28.4°c 1006.9 hPa 68% 0.2mm
16/11:00am NE 9-14 kts 30.5°c 1006.7 hPa 59% 0.2mm
16/10:30am WSW 6-9 kts 31.0°c 1006.5 hPa 54% 0.2mm
16/10:00am NNW 9-11 kts 29.8°c 1006.5 hPa 57% 0.2mm
16/09:30am NNW 9-12 kts 28.8°c 1006.5 hPa 62% 0.2mm
16/09:00am NW 12-17 kts 28.3°c 1006.3 hPa 65% 4.4mm
16/08:30am NNW 12-17 kts 27.4°c 1006.6 hPa 68% 4.4mm
16/08:00am NNW 11-16 kts 26.6°c 1006.6 hPa 73% 4.4mm
16/07:30am NW 11-19 kts 25.8°c 1006.8 hPa 78% 4.4mm
16/07:00am NW 11-18 kts 25.0°c 1006.8 hPa 83% 4.4mm
16/06:30am NNW 9-12 kts 24.2°c 1006.8 hPa 84% 4.4mm
16/06:00am NW 6-11 kts 23.9°c 1006.6 hPa 86% 4.4mm
16/05:30am NW 9-14 kts 23.4°c 1006.3 hPa 88% 4.4mm
16/05:00am NNW 10-17 kts 23.3°c 1006.3 hPa 91% 4.4mm
16/04:30am N 15-18 kts 23.4°c 1005.7 hPa 93% 4.4mm
16/04:00am NW 8-10 kts 23.5°c 1006.4 hPa 92% 3.4mm
16/03:30am NW 9-15 kts 23.8°c 1006.3 hPa 89% 2.6mm
16/03:00am N 14-17 kts 24.2°c 1005.5 hPa 86% 2.6mm
16/02:30am N 13-18 kts 23.8°c 1005.7 hPa 90% 2.4mm
16/02:00am N 16-21 kts 23.7°c 1005.5 hPa 93% 2.4mm
16/01:30am N 12-16 kts 24.2°c 1006.1 hPa 89% 2.0mm
16/01:22am N 9-13 kts 23.9°c 1006.4 hPa 88% 1.8mm
16/01:02am SW 4-6 kts 24.4°c 1007.4 hPa 81% 1.0mm
16/01:00am SW 4-6 kts 24.4°c 1007.5 hPa 81% 0.6mm
16/12:30am WNW 9-12 kts 25.2°c 1008.0 hPa 79% 0.0mm
16/12:27am NW 9-12 kts 25.1°c 1007.9 hPa 79% 0.0mm
16/12:00am N 15-19 kts 25.2°c 1005.9 hPa 79% 0.0mm
Time Wind Speed Temp Pressure Rel. Hum Rain
15/11:30pm N 15-20 kts 25.4°c 1005.7 hPa 77% 0.0mm
15/11:00pm NNW 10-15 kts 25.4°c 1007.0 hPa 75% 0.0mm
15/10:30pm NW 7-11 kts 25.4°c 1008.1 hPa 74% 0.0mm
15/10:00pm NNW 16-21 kts 25.2°c 1006.9 hPa 78% 0.0mm
15/09:30pm NNW 13-19 kts 25.2°c 1007.2 hPa 77% 0.0mm
15/09:00pm N 18-22 kts 25.5°c 1006.6 hPa 78% 0.0mm
15/08:30pm N 18-23 kts 25.5°c 1006.2 hPa 78% 0.0mm
15/08:00pm N 17-22 kts 25.7°c 1006.3 hPa 76% 0.0mm
15/07:30pm N 20-24 kts 25.8°c 1006.2 hPa 75% 0.0mm
15/07:00pm N 19-24 kts 25.9°c 1005.9 hPa 76% 0.0mm
15/06:30pm N 18-23 kts 26.1°c 1005.6 hPa 73% 0.0mm
15/06:00pm N 18-23 kts 26.5°c 1005.3 hPa 73% 0.0mm
15/05:30pm N 18-23 kts 27.2°c 1005.1 hPa 71% 0.0mm
15/05:00pm N 18-22 kts 27.3°c 1005.1 hPa 71% 0.0mm
15/04:30pm N 19-24 kts 27.5°c 1005.1 hPa 68% 0.0mm
15/04:00pm N 18-23 kts 28.3°c 1005.3 hPa 67% 0.0mm
15/03:30pm N 18-24 kts 28.1°c 1005.8 hPa 65% 0.0mm
15/03:00pm N 18-22 kts 28.5°c 1006.3 hPa 65% 0.0mm
15/02:30pm N 18-21 kts 28.3°c 1006.4 hPa 63% 0.0mm
15/02:00pm N 16-20 kts 29.3°c 1006.8 hPa 64% 0.0mm
15/01:30pm N 16-21 kts 28.6°c 1007.0 hPa 63% 0.0mm
15/01:00pm N 15-18 kts 28.6°c 1007.4 hPa 63% 0.0mm
15/12:30pm NNE 15-18 kts 28.2°c 1007.8 hPa 63% 0.0mm
15/12:00pm NNE 15-17 kts 28.4°c 1008.1 hPa 62% 0.0mm
15/11:30am NNE 14-16 kts 27.8°c 1008.7 hPa 60% 0.0mm
15/11:00am NNE 14-17 kts 28.2°c 1008.8 hPa 60% 0.0mm
15/10:30am NNE 14-16 kts 28.0°c 1009.0 hPa 63% 0.0mm
15/10:00am NNE 12-14 kts 27.8°c 1009.3 hPa 63% 0.0mm
15/09:30am NNE 11-14 kts 27.3°c 1009.5 hPa 62% 0.0mm
15/09:00am N 11-13 kts 26.7°c 1009.5 hPa 64% 0.0mm
15/08:30am N 9-12 kts 27.2°c 1009.7 hPa 62% 0.0mm
15/08:00am NNW 6-9 kts 26.4°c 1009.6 hPa 58% 0.0mm
15/07:30am WNW 7-9 kts 25.8°c 1009.7 hPa 64% 0.0mm
15/07:00am NW 5-8 kts 24.5°c 1009.8 hPa 70% 0.0mm
15/06:30am WSW 2-4 kts 22.6°c 1009.8 hPa 83% 0.0mm
15/06:00am WSW 3-5 kts 21.0°c 1009.6 hPa 91% 0.0mm
15/05:30am WNW 4 kts 20.2°c 1009.3 hPa 93% 0.0mm
15/05:00am WNW 4-5 kts 20.0°c 1008.8 hPa 92% 0.0mm
15/04:30am W 5-6 kts 19.5°c 1008.5 hPa 94% 0.0mm
15/04:00am WSW 3-4 kts 19.1°c 1008.5 hPa 94% 0.0mm
15/03:30am WSW 4-5 kts 19.6°c 1008.5 hPa 94% 0.0mm
15/03:00am WSW 4-5 kts 20.1°c 1008.8 hPa 94% 0.0mm
15/02:30am WSW 3-4 kts 20.2°c 1009.0 hPa 94% 0.0mm
15/02:00am CALM 0 kts 20.4°c 1009.4 hPa 93% 0.0mm
15/01:30am WSW 4-5 kts 20.6°c 1009.4 hPa 93% 0.0mm
15/01:00am WSW 4-5 kts 20.5°c 1009.6 hPa 92% 0.0mm
15/12:30am CALM 0 kts 20.6°c 1009.9 hPa 90% 0.0mm
15/12:00am SW 3-5 kts 21.2°c 1010.4 hPa 89% 0.0mm
Time Wind Speed Temp Pressure Rel. Hum Rain
14/11:30pm WSW 7-8 kts 21.4°c 1010.8 hPa 89% 0.0mm
14/11:00pm WSW 3-5 kts 21.5°c 1011.0 hPa 89% 0.0mm
14/10:30pm WSW 1-5 kts 21.6°c 1011.3 hPa 87% 0.0mm
14/10:00pm SW 7-9 kts 21.9°c 1011.6 hPa 87% 0.0mm
14/09:30pm WSW 6-7 kts 21.9°c 1011.4 hPa 88% 0.0mm
14/09:00pm WSW 4-5 kts 22.2°c 1011.3 hPa 87% 0.0mm
14/08:30pm SW 4 kts 22.5°c 1011.4 hPa 86% 0.0mm
14/08:00pm SE 3-5 kts 22.9°c 1011.5 hPa 79% 0.0mm
14/07:30pm E 5-6 kts 24.5°c 1011.3 hPa 72% 0.0mm
14/07:00pm E 6-8 kts 24.5°c 1011.1 hPa 66% 0.0mm
14/06:30pm ESE 7-9 kts 25.0°c 1010.9 hPa 69% 0.0mm
14/06:00pm ESE 9-11 kts 25.1°c 1010.8 hPa 66% 0.0mm
14/05:30pm ESE 7-11 kts 26.3°c 1010.5 hPa 65% 0.0mm
14/05:00pm ESE 10-13 kts 26.4°c 1010.5 hPa 62% 0.0mm
14/04:30pm E 9-14 kts 27.0°c 1010.6 hPa 58% 0.0mm
14/04:00pm ESE 10-15 kts 26.7°c 1010.6 hPa 58% 0.0mm
14/03:30pm E 11-16 kts 27.1°c 1010.7 hPa 56% 0.0mm
14/03:00pm ESE 13-17 kts 27.2°c 1011.0 hPa 56% 0.0mm
14/02:30pm ESE 13-17 kts 27.4°c 1011.1 hPa 59% 0.0mm
14/02:00pm ESE 12-16 kts 27.5°c 1011.4 hPa 57% 0.0mm
14/01:30pm ESE 11-16 kts 28.3°c 1011.6 hPa 60% 0.0mm
14/01:00pm ESE 12-16 kts 27.7°c 1011.8 hPa 56% 0.0mm
14/12:30pm ESE 11-15 kts 28.1°c 1012.1 hPa 54% 0.0mm
14/12:00pm ESE 11-15 kts 27.8°c 1012.6 hPa 52% 0.0mm
14/11:30am E 10-14 kts 28.1°c 1012.9 hPa 49% 0.0mm
14/11:00am ESE 8-14 kts 28.1°c 1013.2 hPa 51% 0.0mm
14/10:30am E 8-11 kts 27.4°c 1013.5 hPa 54% 0.0mm
14/10:00am ESE 8-15 kts 27.6°c 1013.5 hPa 57% 0.0mm
14/09:30am E 7-11 kts 27.1°c 1013.6 hPa 58% 0.0mm
14/09:00am SSE 5-9 kts 26.4°c 1013.8 hPa 58% 2.8mm
14/08:30am SSE 4-8 kts 25.3°c 1014.0 hPa 62% 2.6mm
14/08:00am SSE 5-7 kts 25.3°c 1014.2 hPa 64% 2.6mm
14/07:30am SW 6-8 kts 24.1°c 1014.0 hPa 74% 2.6mm
14/07:00am SW 4-6 kts 22.7°c 1013.9 hPa 81% 2.6mm
14/06:30am SW 4-5 kts 21.6°c 1013.8 hPa 87% 2.6mm
14/06:00am SW 5-6 kts 20.5°c 1013.7 hPa 92% 2.6mm
14/05:30am SW 4-5 kts 19.9°c 1013.6 hPa 94% 2.6mm
14/05:00am SW 3-4 kts 19.9°c 1013.5 hPa 94% 2.6mm
14/04:30am SSW 3-5 kts 20.1°c 1013.5 hPa 94% 2.6mm
14/04:00am SW 3-4 kts 20.2°c 1013.3 hPa 93% 2.6mm
14/03:30am SW 3-6 kts 20.3°c 1013.3 hPa 94% 2.6mm
14/03:00am SW 5-7 kts 20.3°c 1013.3 hPa 94% 2.6mm
14/02:30am WSW 3-5 kts 20.3°c 1013.4 hPa 94% 2.6mm
14/02:00am NW 3-5 kts 20.3°c 1013.6 hPa 92% 2.6mm
14/01:30am SW 3-5 kts 20.9°c 1013.9 hPa 93% 2.6mm
14/01:00am WSW 7-9 kts 21.0°c 1014.2 hPa 92% 2.6mm
14/12:30am SW 7-8 kts 20.9°c 1014.6 hPa 94% 2.6mm
14/12:00am SW 7-9 kts 21.1°c 1015.1 hPa 95% 2.6mm